Weather in Tsalenjikha

Georgia     42°36′35″N   42°04′13″E
temp.,
°C
wind,
m/s
gust,
m/s
humid.,
%
clouds,
%
prec.,
mm/h
press.,
hPa
HPBL,
m
16 october, sat
sat1601:00+15ene1197100 0.0 101711
04:00+14ene119789 0.0 101610
07:00+14e119710 0.0 101510
10:00+18ene01794 0.0 1014227
13:00+23w11560 0.0 1013588
16:00+24wnw22584 0.0 1012609
19:00+17wsw119223 0.0 101311
22:00+16e00940 0.0 101310
17 october, sun
sun1701:00+15ne11905 0.0 101311
04:00+15ene11849 0.0 101211
07:00+15ene11785 0.0 101211
10:00+18sse117186 0.2 1012133
13:00+22sw125983 0.0 1012762
16:00+20wsw347691 0.0 1012773
19:00+17sw259478 0.5 1014185
22:00+16ssw279799 1.8 1015377
18 october, mon
mon1801:00+16sse2697100 1.6 1014340
04:00+15wsw139992 13.0 1014188
07:00+15sw1198100 5.1 101554
10:00+16ssw1293100 10.1 1016105
13:00+16ssw129095 2.8 1016305
16:00+14nw0197100 9.0 1017150
19:00+14ene0195100 0.6 101814
22:00+14s1399100 8.4 1018227
19 october, tue
tue1901:00+14nw119798 6.9 101946
04:00+13nw119793 8.7 101919
07:00+13sse0199100 3.7 101940
10:00+13e1298100 6.3 102060
13:00+14ssw0194100 1.9 102029
16:00+15w248849 4.8 1020559
19:00+13wnw2794100 3.9 1020237
22:00+13nw1390100 6.9 102085
20 october, wed
wed2001:00+11nw2595100 2.9 1021256
04:00+9nw119657 3.8 102210
07:00+10nne139796 6.8 1022207
10:00+12wnw38888 7.8 1024529
13:00+14wnw59745 0.8 10251343
16:00+13wnw597224 1.7 10261253
19:00+11nw397110 0.1 1028435
22:00+8nnw11813 0.1 102911